Weather History for Mountain Home, ID

Change the Weather History Date:

Sunday, December 16, 2012

  Actual Average Record
Temperature  
Mean Temperature 32 °F 29 °F  
Max Temperature 35 °F 37 °F 59 °F (1957)
Min Temperature 28 °F 20 °F -15 °F (1922)
Degree Days  
Heating Degree Days 33 36  
Month to date heating degree days 410 549  
Cooling Degree Days 0 0  
Month to date cooling degree days 0 0  
Moisture  
Dew Point 32 °F    
Average Humidity 100    
Maximum Humidity 100    
Minimum Humidity 100    
Precipitation  
Precipitation 0.01 in 0.05 in 0.55 in (1977)
Month to date precipitation 0.26 0.88  
Sea Level Pressure  
Sea Level Pressure 29.83 in    
Wind  
Wind Speed 8 mph (ESE)    
Max Wind Speed 22 mph    
Max Gust Speed -    
Visibility 8 miles    
Events Rain , Snow    
T = Trace of Precipitation, MM = Missing Value Source: NWS Daily Summary

Daily Weather History Graph

Daily Weather History Graph

Search for Another Location

Airport:

Trip Planner

Search our weather history database for the weather conditions in past years. The results will help you decide how hot, cold, wet, or windy it might be!

Date:

Astronomy

Dec. 16, 2012 Rise Set
Actual Time 8:09 AM MST 5:09 PM MST
Civil Twilight 7:36 AM MST 5:42 PM MST
Nautical Twilight 7:00 AM MST 6:18 PM MST
Astronomical Twilight 6:26 AM MST 6:52 PM MST
Moon 10:40 AM MST (12/16) 9:34 PM MST (12/16)
Length of Visible Light 10h 05m
Length of Day
9h 00m
Waxing Crescent, 16% of the Moon is Illuminated
Dec 16
Waxing Crescent
Dec 19
First Quarter
Dec 28
Full
Jan 4
Last Quarter
Jan 11
New

Hourly Weather History & Observations

Time (MST) Temp. Windchill Dew Point Humidity Pressure Visibility Wind Dir Wind Speed Gust Speed Precip Events Conditions
12:03 AM 32.0 °F 28.7 °F 32.0 °F 100% 29.80 in 4.0 mi ESE 3.5 mph - N/A Snow Light Snow
12:23 AM 32.0 °F 24.8 °F 32.0 °F 100% 29.79 in 6.0 mi East 8.1 mph - N/A Snow Light Snow
12:43 AM 32.0 °F 23.6 °F 32.0 °F 100% 29.78 in 10.0 mi East 10.4 mph - N/A Snow Light Snow
12:58 AM 31.5 °F 21.8 °F 31.5 °F 100% 29.83 in 10.0 mi East 12.7 mph - 0.00 in   Overcast
1:13 AM 32.0 °F 22.5 °F 32.0 °F 100% 29.78 in 10.0 mi East 12.7 mph - N/A   Overcast
1:48 AM 30.2 °F 20.2 °F 30.2 °F 100% 29.77 in 10.0 mi East 12.7 mph - N/A   Mostly Cloudy
1:58 AM 29.7 °F 19.6 °F 29.7 °F 100% 29.83 in 10.0 mi East 12.7 mph - N/A   Scattered Clouds
2:13 AM 28.4 °F 19.1 °F 28.4 °F 100% 29.78 in 10.0 mi East 10.4 mph - N/A   Mostly Cloudy
2:28 AM 28.4 °F 19.1 °F 28.4 °F 100% 29.78 in 10.0 mi East 10.4 mph - N/A   Scattered Clouds
2:58 AM 28.6 °F 18.7 °F 28.6 °F 100% 29.84 in 10.0 mi East 11.5 mph - N/A   Mostly Cloudy
3:03 AM 28.4 °F 18.5 °F 28.4 °F 100% 29.79 in 10.0 mi East 11.5 mph - N/A   Overcast
3:38 AM 32.0 °F 23.0 °F 32.0 °F 100% 29.80 in 5.0 mi ESE 11.5 mph - N/A Snow Light Snow
3:43 AM 32.0 °F 23.6 °F 32.0 °F 100% 29.80 in 4.0 mi East 10.4 mph - N/A Snow Light Snow
3:48 AM 32.0 °F 24.2 °F 32.0 °F 100% 29.80 in 6.0 mi East 9.2 mph - N/A Snow Light Snow
3:58 AM 30.6 °F 23.1 °F 30.6 °F 100% 29.85 in 7.0 mi East 8.1 mph - 0.00 in Snow Light Snow
4:03 AM 32.0 °F 24.2 °F 32.0 °F 100% 29.80 in 10.0 mi East 9.2 mph - N/A   Mostly Cloudy
4:28 AM 32.0 °F 28.7 °F 32.0 °F 100% 29.81 in 10.0 mi ESE 3.5 mph - N/A   Overcast
4:33 AM 32.0 °F - 32.0 °F 100% 29.82 in 10.0 mi East 2.3 mph - N/A   Overcast
4:38 AM 32.0 °F 28.7 °F 32.0 °F 100% 29.81 in 10.0 mi ENE 3.5 mph - N/A   Mostly Cloudy
4:43 AM 32.0 °F 28.7 °F 32.0 °F 100% 29.82 in 5.0 mi ENE 3.5 mph - N/A Snow Light Snow
4:48 AM 32.0 °F - 32.0 °F 100% 29.82 in 2.5 mi NE 1.2 mph - N/A Snow Light Snow
4:53 AM 30.2 °F 25.4 °F 30.2 °F 100% 29.81 in 2.5 mi East 4.6 mph - N/A Snow Light Snow
4:58 AM 30.2 °F 26.7 °F 30.2 °F 100% 29.86 in 4.0 mi East 3.5 mph - 0.00 in Snow Light Snow
5:03 AM 30.2 °F 24.3 °F 30.2 °F 100% 29.81 in 8.0 mi East 5.8 mph - N/A Snow Light Snow
5:08 AM 30.2 °F 24.3 °F 30.2 °F 100% 29.81 in 10.0 mi East 5.8 mph - N/A Snow Light Snow
5:13 AM 30.2 °F 24.3 °F 30.2 °F 100% 29.82 in 10.0 mi East 5.8 mph - N/A   Overcast
5:23 AM 28.4 °F 22.2 °F 28.4 °F 100% 29.82 in 10.0 mi East 5.8 mph - N/A   Mostly Cloudy
5:58 AM 29.1 °F 22.1 °F 29.1 °F 100% 29.89 in 10.0 mi East 6.9 mph - 0.00 in   Overcast
6:08 AM 28.4 °F 23.3 °F 28.4 °F 100% 29.82 in 10.0 mi ESE 4.6 mph - N/A   Overcast
6:23 AM 28.4 °F - 28.4 °F 100% 29.82 in 10.0 mi East 2.3 mph - N/A   Overcast
6:43 AM 30.2 °F 25.4 °F 30.2 °F 100% 29.83 in 10.0 mi East 4.6 mph - N/A   Overcast
6:58 AM 29.7 °F - 29.7 °F 100% 29.89 in 10.0 mi ESE 2.3 mph - N/A   Overcast
7:53 AM 30.2 °F 26.7 °F 30.2 °F 100% 29.85 in 10.0 mi East 3.5 mph - N/A   Overcast
7:58 AM 29.5 °F - 29.5 °F 100% 29.91 in 10.0 mi East 2.3 mph - N/A   Overcast
8:18 AM 30.2 °F 26.7 °F 30.2 °F 100% 29.86 in 7.0 mi SE 3.5 mph - N/A Snow Light Snow
8:33 AM 32.0 °F - 32.0 °F 100% 29.86 in 2.5 mi West 2.3 mph - N/A Snow Light Snow
8:38 AM 32.0 °F 28.7 °F 32.0 °F 100% 29.87 in 3.0 mi West 3.5 mph - N/A Snow Light Snow
8:58 AM 32.7 °F 28.3 °F 32.7 °F 100% 29.93 in 10.0 mi SSW 4.6 mph - 0.00 in Snow Light Snow
9:28 AM 32.0 °F 28.7 °F 32.0 °F 100% 29.88 in 6.0 mi North 3.5 mph - N/A Snow Light Snow
9:38 AM 32.0 °F - 32.0 °F 100% 29.89 in 6.0 mi Calm Calm - N/A Snow Light Snow
9:43 AM 32.0 °F - 32.0 °F 100% 29.89 in 9.0 mi Calm Calm - N/A Snow Light Snow
9:58 AM 33.1 °F - 33.1 °F 100% 29.95 in 10.0 mi South 2.3 mph - 0.00 in   Overcast
10:18 AM 33.8 °F - 33.8 °F 100% 29.89 in 10.0 mi South 2.3 mph - N/A   Overcast
10:58 AM 35.4 °F 30.5 °F 35.4 °F 100% 29.96 in 10.0 mi WSW 5.8 mph - N/A   Overcast
11:23 AM 33.8 °F 27.7 °F 33.8 °F 100% 29.91 in 8.0 mi WSW 6.9 mph - N/A Snow Light Snow
11:38 AM 33.8 °F 27.7 °F 33.8 °F 100% 29.91 in 7.0 mi WSW 6.9 mph - N/A Snow Light Snow
11:48 AM 33.8 °F 27.7 °F 33.8 °F 100% 29.90 in 5.0 mi West 6.9 mph - N/A Snow Light Snow
11:58 AM 33.8 °F 28.6 °F 33.8 °F 100% 29.96 in 3.0 mi West 5.8 mph - 0.00 in Snow Light Snow
12:18 PM 33.8 °F 28.6 °F 33.8 °F 100% 29.89 in 10.0 mi West 5.8 mph - N/A Snow Light Snow
12:28 PM 33.8 °F 28.6 °F 33.8 °F 100% 29.89 in 10.0 mi West 5.8 mph - N/A Rain Light Rain
12:33 PM 33.8 °F 28.6 °F 33.8 °F 100% 29.89 in 10.0 mi West 5.8 mph - N/A Rain Light Rain
12:38 PM 33.8 °F 29.6 °F 33.8 °F 100% 29.88 in 10.0 mi West 4.6 mph - N/A Rain Light Rain
12:43 PM 33.8 °F 29.6 °F 33.8 °F 100% 29.88 in 10.0 mi West 4.6 mph - N/A Rain Light Rain
12:48 PM 33.8 °F 29.6 °F 33.8 °F 100% 29.88 in 10.0 mi West 4.6 mph - N/A Rain Light Rain
12:58 PM 34.5 °F 30.4 °F 34.5 °F 100% 29.93 in 10.0 mi West 4.6 mph - 0.00 in Rain Light Rain
1:13 PM 35.6 °F - 35.6 °F 100% 29.87 in 10.0 mi WNW 2.3 mph - N/A   Overcast
1:18 PM 35.6 °F - 35.6 °F 100% 29.87 in 10.0 mi Calm Calm - N/A   Overcast
1:28 PM 35.6 °F - 35.6 °F 100% 29.86 in 10.0 mi Calm Calm - N/A   Overcast
1:33 PM 35.6 °F - 35.6 °F 100% 29.86 in 10.0 mi Calm Calm - N/A   Overcast
1:38 PM 35.6 °F - 35.6 °F 100% 29.86 in 10.0 mi East 2.3 mph - N/A   Overcast
1:53 PM 35.6 °F - 35.6 °F 100% 29.86 in 10.0 mi NE 1.2 mph - N/A   Overcast
1:58 PM 35.6 °F - 35.6 °F 100% 29.91 in 10.0 mi Calm Calm - 0.00 in   Overcast
2:03 PM 35.6 °F - 35.6 °F 100% 29.86 in 10.0 mi Calm Calm - N/A Rain Light Rain
2:18 PM 35.6 °F - 35.6 °F 100% 29.85 in 7.0 mi East 1.2 mph - N/A Snow Light Snow
2:23 PM 35.6 °F - 35.6 °F 100% 29.85 in 7.0 mi Calm Calm - N/A Rain Light Rain
2:33 PM 35.6 °F 31.7 °F 35.6 °F 100% 29.85 in 9.0 mi SSE 4.6 mph - N/A Rain Light Rain
2:58 PM 35.1 °F 31.0 °F 35.1 °F 100% 29.91 in 10.0 mi SSE 4.6 mph - N/A Rain Light Rain
3:18 PM 33.8 °F 27.7 °F 33.8 °F 100% 29.84 in 5.0 mi ESE 6.9 mph - N/A Rain Light Rain
3:23 PM 32.0 °F 25.6 °F 32.0 °F 100% 29.84 in 4.0 mi SE 6.9 mph - N/A Rain Light Rain
3:38 PM 32.0 °F 25.6 °F 32.0 °F 100% 29.84 in 2.5 mi SE 6.9 mph - N/A Snow Light Snow
3:43 PM 32.0 °F 25.6 °F 32.0 °F 100% 29.84 in 3.0 mi ESE 6.9 mph - N/A Snow Light Snow
3:58 PM 33.1 °F 26.9 °F 33.1 °F 100% 29.89 in 4.0 mi ESE 6.9 mph - 0.01 in Snow Light Snow
4:38 PM 32.0 °F 24.8 °F 32.0 °F 100% 29.82 in 2.5 mi ESE 8.1 mph - N/A Snow Light Snow
4:53 PM 32.0 °F 23.6 °F 32.0 °F 100% 29.82 in 3.0 mi ESE 10.4 mph - N/A Snow Light Snow
4:58 PM 32.7 °F 24.5 °F 32.7 °F 100% 29.88 in 4.0 mi ESE 10.4 mph - 0.00 in Snow Light Snow
5:03 PM 32.0 °F 23.0 °F 32.0 °F 100% 29.81 in 4.0 mi ESE 11.5 mph - N/A Snow Light Snow
5:08 PM 32.0 °F 22.5 °F 32.0 °F 100% 29.81 in 5.0 mi ESE 12.7 mph - N/A Snow Light Snow
5:13 PM 32.0 °F 23.0 °F 32.0 °F 100% 29.81 in 5.0 mi ESE 11.5 mph - N/A Snow Light Snow
5:18 PM 32.0 °F 22.5 °F 32.0 °F 100% 29.81 in 4.0 mi ESE 12.7 mph - N/A Snow Light Snow
5:23 PM 32.0 °F 22.5 °F 32.0 °F 100% 29.80 in 4.0 mi ESE 12.7 mph - N/A Snow Light Snow
5:28 PM 32.0 °F 21.6 °F 32.0 °F 100% 29.80 in 6.0 mi ESE 15.0 mph - N/A   Overcast
5:43 PM 32.0 °F 21.2 °F 32.0 °F 100% 29.80 in 10.0 mi ESE 16.1 mph - N/A   Overcast
5:58 PM 32.7 °F 22.1 °F 32.7 °F 100% 29.87 in 10.0 mi ESE 16.1 mph - 0.00 in   Overcast
6:28 PM 32.0 °F 20.8 °F 32.0 °F 100% 29.78 in 10.0 mi ESE 17.3 mph - N/A   Mostly Cloudy
6:38 PM 32.0 °F 20.5 °F 32.0 °F 100% 29.78 in 10.0 mi East 18.4 mph - N/A   Mostly Cloudy
6:48 PM 32.0 °F 20.1 °F 32.0 °F 100% 29.77 in 10.0 mi East 19.6 mph - N/A   Overcast
6:58 PM 32.5 °F 20.8 °F 32.5 °F 100% 29.83 in 10.0 mi East 19.6 mph - N/A   Overcast
7:08 PM 32.0 °F 20.5 °F 32.0 °F 100% 29.77 in 10.0 mi ESE 18.4 mph - N/A   Overcast
7:13 PM 32.0 °F 20.1 °F 32.0 °F 100% 29.76 in 10.0 mi East 19.6 mph - N/A   Overcast
7:28 PM 32.0 °F 20.1 °F 32.0 °F 100% 29.76 in 10.0 mi East 19.6 mph - N/A   Overcast
7:38 PM 32.0 °F 19.8 °F 32.0 °F 100% 29.75 in 10.0 mi East 20.7 mph - N/A   Overcast
7:43 PM 32.0 °F 19.5 °F 32.0 °F 100% 29.75 in 10.0 mi East 21.9 mph - N/A   Overcast
7:58 PM 32.7 °F 20.7 °F 32.7 °F 100% 29.80 in 10.0 mi East 20.7 mph - N/A   Overcast
8:58 PM 33.1 °F 21.2 °F 33.1 °F 100% 29.77 in 10.0 mi ESE 20.7 mph - 0.00 in   Overcast
9:58 PM 33.3 °F 22.5 °F 33.3 °F 100% 29.75 in 10.0 mi East 17.3 mph - N/A   Overcast
10:13 PM 32.0 °F 20.5 °F 32.0 °F 100% 29.68 in 10.0 mi ESE 18.4 mph - N/A   Mostly Cloudy
10:53 PM 32.0 °F 20.8 °F 32.0 °F 100% 29.66 in 10.0 mi ESE 17.3 mph - N/A   Mostly Cloudy
10:58 PM 32.0 °F 20.8 °F 32.0 °F 100% 29.71 in 10.0 mi ESE 17.3 mph - N/A   Mostly Cloudy
11:58 PM 34.2 °F 23.3 °F 34.2 °F 100% 29.68 in 10.0 mi ESE 18.4 mph - N/A   Overcast